Location: Kalberh�ni
(46.4610°N, 7.2453°E)
Time: 04:31:14
(UTC+00:00)

Cosmos 2333 Rocket - Pass Details

Date: 24 October 2021
Orbit: 837 x 865 km, 70.8° (Epoch: 05 December)

Event Time Altitude Azimuth Distance (km) Brightness Sun altitude
Rises 20:04:32 0° 232° (SW) 3,390 5.6 -37.2°
Reaches altitude 10° 20:07:09 10° 240° (WSW) 2,463 4.9 -37.6°
Enters shadow 20:09:38 24° 258° (WSW) 1,701 4.1 -38.0°
